This is the latest recevied weather packets stored in our database for station/object W5ITZ. If no packets are shown the sender has not sent any weather packets the latest 10 day(s).
| Time | Temp. | Humidity | Pressure | Rain* | Wind** | Luminosity | Snow |
|---|---|---|---|---|---|---|---|
| 1778167333 | 18.89° C | 86% | 1015.3 hPa | 0 mm | - | 151 W/m² | - |
| 1778167030 | 18.89° C | 86% | 1015.4 hPa | 0 mm | - | 152 W/m² | - |
| 1778166726 | 18.89° C | 87% | 1015.6 hPa | 0 mm | - | 159 W/m² | - |
| 1778166423 | 18.33° C | 87% | 1015.4 hPa | 0 mm | - | 147 W/m² | - |
| 1778166120 | 18.33° C | 87% | 1015.3 hPa | 0 mm | - | 130 W/m² | - |
| 1778165816 | 18.33° C | 86% | 1015.5 hPa | 0 mm | - | 119 W/m² | - |
| 1778165513 | 18.89° C | 86% | 1015.5 hPa | 0 mm | - | 65 W/m² | - |
| 1778165209 | 18.89° C | 86% | 1015.4 hPa | 0 mm | - | 99 W/m² | - |
| 1778164908 | 18.89° C | 86% | 1015.3 hPa | 0 mm | - | 134 W/m² | - |
| 1778164604 | 18.89° C | 85% | 1015.2 hPa | 0 mm | - | 107 W/m² | - |
| 1778164301 | 18.89° C | 85% | 1015.2 hPa | 0 mm | - | 141 W/m² | - |
| 1778163997 | 18.89° C | 86% | 1015.3 hPa | 0 mm | - | 181 W/m² | - |
| 1778163694 | 18.89° C | 86% | 1015.4 hPa | 0 mm | - | 134 W/m² | - |
| 1778163390 | 18.89° C | 85% | 1015.3 hPa | 0 mm | - | 129 W/m² | - |
| 1778163087 | 18.89° C | 86% | 1015.5 hPa | 0 mm | - | 102 W/m² | - |
| 1778162783 | 18.89° C | 86% | 1015.8 hPa | 0 mm | - | 87 W/m² | - |
| 1778162481 | 18.89° C | 86% | 1015.5 hPa | 0 mm | - | 57 W/m² | - |
| 1778162178 | 18.89° C | 85% | 1015.8 hPa | 0 mm | - | 38 W/m² | - |
| 1778161875 | 18.89° C | 85% | 1015.5 hPa | 0 mm | - | 48 W/m² | - |
| 1778161571 | 18.89° C | 85% | 1015.3 hPa | 0 mm | - | 30 W/m² | - |
| 1778161267 | 18.89° C | 84% | 1015.2 hPa | 0 mm | - | 41 W/m² | - |
| 1778160963 | 18.89° C | 84% | 1015.3 hPa | 0 mm | - | 39 W/m² | - |
| 1778160661 | 19.44° C | 84% | 1014.8 hPa | 0 mm | - | 64 W/m² | - |
| 1778160358 | 19.44° C | 84% | 1014.5 hPa | 0 mm | - | 92 W/m² | - |
| 1778160054 | 18.89° C | 84% | 1014.7 hPa | 0 mm | - | 120 W/m² | - |
* Rain latest hour (hover to see other rain measurements)
** Current wind speed in m/s (hover to see current wind gust speed)